Total_Precipitation_Accumulation
1.27 1.27 1.30 1.32 1.42 1.55 1.70 1.94 2.14 2.03 1.72 1.48 1.47 1.43 1.38 1.46 1.66 1.41 1.30 1.32 1.20 1.12 1.12 1.11 1.12 1.14 1.13 1.10 1.12 1.18 1.27 1.41 1.64 1.83 2.01 2.20 2.34 2.44
1.20 1.14 1.13 1.14 1.19 1.26 1.38 1.54 1.79 1.94 1.79 1.46 1.39 1.31 1.26 1.24 1.48 1.29 1.29 1.31 1.10 0.96 0.91 0.91 0.94 0.99 0.99 0.94 0.96 1.00 1.05 1.13 1.29 1.49 1.72 1.91 2.06 2.21
1.09 1.08 1.07 1.09 1.13 1.11 1.18 1.30 1.46 1.66 1.77 1.59 1.43 1.33 1.28 1.31 1.34 1.22 1.15 1.07 0.99 0.98 0.85 0.80 0.81 0.88 0.89 0.86 0.88 0.91 0.93 1.02 1.16 1.32 1.51 1.71 1.87 1.97
1.04 1.08 1.06 1.08 1.09 1.07 1.12 1.18 1.34 1.55 1.70 1.74 1.57 1.43 1.36 1.31 1.29 1.20 0.99 0.91 0.93 1.04 0.90 0.80 0.75 0.75 0.83 0.80 0.79 0.83 0.89 1.01 1.11 1.21 1.36 1.51 1.62 1.70
1.00 1.06 1.08 1.10 1.08 1.07 1.11 1.16 1.29 1.42 1.59 1.66 1.59 1.49 1.42 1.34 1.38 1.26 1.12 1.18 1.01 1.01 0.93 0.86 0.80 0.79 1.00 1.01 0.79 0.75 0.80 0.93 1.02 1.07 1.18 1.28 1.36 1.40
0.85 0.96 1.02 1.04 1.03 1.09 1.12 1.16 1.25 1.41 1.52 1.57 1.50 1.41 1.38 1.37 1.43 1.43 1.36 1.31 1.20 0.96 0.97 0.91 0.88 0.90 1.22 1.71 1.19 0.87 0.82 0.89 0.97 1.04 1.06 1.06 1.06 1.07
0.75 0.82 0.87 0.88 0.87 0.93 0.95 1.05 1.18 1.34 1.43 1.50 1.47 1.41 1.35 1.44 1.46 1.40 1.36 1.35 1.23 1.09 1.08 0.99 1.12 1.40 1.90 2.51 2.02 1.37 1.12 1.01 0.94 0.98 1.02 1.00 0.95 0.89
0.81 0.82 0.76 0.76 0.72 0.69 0.75 0.85 1.02 1.23 1.41 1.49 1.44 1.42 1.36 1.40 1.50 1.48 1.46 1.47 1.43 1.18 1.13 1.11 1.34 2.06 2.70 3.00 2.54 1.71 1.37 1.14 1.01 1.03 1.07 1.05 0.92 0.83
0.86 0.84 0.72 0.68 0.77 0.76 0.76 0.79 0.92 1.05 1.27 1.49 1.54 1.42 1.39 1.44 1.57 1.63 1.56 1.54 1.50 1.29 1.31 1.35 1.57 2.37 2.63 2.75 2.55 1.80 1.48 1.31 1.23 1.27 1.24 1.05 0.88 0.78
0.68 0.75 0.83 0.85 0.78 0.79 0.78 0.88 0.97 1.07 1.15 1.28 1.46 1.39 1.34 1.42 1.53 1.56 1.51 1.45 1.38 1.28 1.31 1.48 1.68 2.21 2.22 2.33 2.37 1.86 1.55 1.42 1.35 1.34 1.28 1.05 0.86 0.76
0.51 0.56 0.63 0.67 0.68 0.75 0.84 1.00 1.04 1.15 1.17 1.33 1.36 1.30 1.30 1.33 1.28 1.31 1.53 1.64 1.54 1.29 1.20 1.37 1.58 1.88 1.93 2.02 1.97 1.80 1.62 1.50 1.39 1.32 1.21 0.97 0.83 0.77
0.55 0.61 0.61 0.54 0.58 0.71 0.88 1.08 1.22 1.26 1.34 1.52 1.50 1.48 1.39 1.35 1.24 1.25 1.53 1.72 1.67 1.43 1.18 1.25 1.40 1.57 1.79 1.78 1.65 1.55 1.61 1.64 1.54 1.47 1.29 0.99 0.74 0.68
0.59 0.68 0.69 0.60 0.55 0.62 0.81 1.01 1.17 1.21 1.43 1.68 1.57 1.41 1.37 1.33 1.28 1.27 1.39 1.48 1.44 1.35 1.11 1.20 1.40 1.50 1.61 1.65 1.58 1.56 1.51 1.55 1.58 1.63 1.51 1.20 0.85 0.64
0.67 0.67 0.67 0.64 0.61 0.69 0.83 0.99 1.12 1.28 1.47 1.59 1.39 1.23 1.15 1.13 1.16 1.10 1.06 1.07 1.12 1.10 1.03 1.13 1.40 1.58 1.58 1.48 1.54 1.55 1.53 1.55 1.57 1.63 1.64 1.47 1.15 0.92
0.60 0.64 0.61 0.59 0.70 0.91 1.03 1.12 1.27 1.46 1.51 1.38 1.25 1.13 1.03 1.05 1.01 0.97 0.94 0.97 0.96 0.85 0.78 0.87 1.12 1.36 1.47 1.45 1.49 1.46 1.55 1.73 1.74 1.72 1.69 1.54 1.33 1.11
0.54 0.67 0.73 0.75 0.92 1.12 1.26 1.35 1.44 1.50 1.36 1.24 1.16 1.05 0.92 0.99 1.01 0.96 1.03 1.05 1.03 0.96 0.84 0.84 0.95 1.15 1.28 1.28 1.41 1.51 1.55 1.91 2.00 1.82 1.77 1.72 1.48 1.25
0.50 0.69 0.84 0.89 1.02 1.17 1.30 1.36 1.40 1.40 1.32 1.20 1.11 1.02 0.93 0.93 0.90 0.83 0.90 0.95 0.98 1.00 0.97 0.94 0.97 1.01 1.08 1.15 1.33 1.46 1.59 1.83 1.95 1.76 1.65 1.73 1.62 1.38
0.58 0.86 0.94 0.93 0.98 1.08 1.19 1.28 1.27 1.24 1.18 1.17 1.15 1.11 1.02 0.90 0.87 0.82 0.81 0.86 0.94 0.92 0.90 0.90 0.87 0.86 0.94 1.03 1.24 1.39 1.44 1.60 1.67 1.53 1.35 1.40 1.54 1.39
0.64 0.85 0.94 0.99 1.03 1.06 1.08 1.11 1.16 1.17 1.11 1.09 1.08 1.02 0.93 0.85 0.82 0.82 0.81 0.83 0.84 0.79 0.71 0.64 0.65 0.70 0.81 1.10 1.27 1.36 1.36 1.35 1.33 1.32 1.23 1.13 1.24 1.26
0.62 0.79 0.90 0.97 1.02 1.05 1.04 1.00 1.03 1.06 1.01 0.94 0.93 0.91 0.86 0.83 0.81 0.81 0.79 0.74 0.71 0.66 0.63 0.55 0.54 0.61 0.75 0.96 1.32 1.48 1.28 1.08 1.01 1.09 1.10 1.06 1.17 1.21
0.55 0.67 0.78 0.86 0.87 0.87 0.91 0.92 0.96 0.99 0.93 0.88 0.89 0.90 0.88 0.83 0.76 0.67 0.61 0.52 0.55 0.59 0.60 0.62 0.60 0.56 0.56 0.68 0.96 1.21 1.24 1.10 0.92 0.89 0.91 0.97 1.01 0.93
0.53 0.63 0.71 0.73 0.72 0.68 0.69 0.73 0.78 0.80 0.81 0.83 0.83 0.79 0.75 0.70 0.63 0.55 0.53 0.53 0.56 0.59 0.59 0.57 0.55 0.53 0.56 0.68 0.84 0.99 1.06 0.94 0.84 0.84 0.83 0.78 0.75 0.79
0.55 0.58 0.61 0.63 0.63 0.60 0.58 0.57 0.61 0.66 0.68 0.70 0.73 0.72 0.65 0.59 0.53 0.48 0.46 0.44 0.45 0.47 0.49 0.52 0.55 0.55 0.57 0.60 0.65 0.74 0.80 0.78 0.69 0.67 0.79 0.82 0.74 0.79